Погода Бирилюссы

Погода Бирилюссы : погода сейчас, прогноз погоды и архив. Всё, что Вы хотите узнать о погоде Бирилюссы!

Поиск расширенной информации на нашем сайте:

Другие новости

Новости СМИ2

Главная страница сайта

Новости сайта

03.07.2017

Напоминаем, что на нашем специализированном сайте Метеоцентр.Азия вы можете получить высокодетализированные автоматические прогнозы погоды по пунктам России, СНГ и мира в авиационном формате (включающие направление и скорость ветра, видимость, явления погоды, количество и форму облачности, нижнюю и верхнюю границу облачности).

Рекомендуем: Мы ждем Вас в сервисе компьютерная помощь теплый стан в любой день недели.

Погода Бирилюссы - сегодня

Время (UTC), дата Ветер
(°,м/с) 
Видим.   Явления Облачность Т
(°С)
Тd
(°С)
f(%) Тe
(°С)
Pmin
(гПа)
dP
(гПа)
Po
(мм)
O2
(г/м3)
Тmin Tmax R s Состояние
почвы
06 16.08.17 030 (СВ) н/о    н/о 
+17.4 +6.7 49 +18  1017.9  -1.3  747  282           
09 16.08.17 030 (СВ) н/о    н/о 
+18.9 +7.4 47 +20  1017  -0.7  747  280           
12 16.08.17 360 (С) н/о    н/о 
+18.6 +8.3 51 +20  1016.6  -0.5  747  280    +19.9       
15 16.08.17 тихо ()   н/о    н/о 
+8.5 +8 97 +9  1017.8  0.5  747  290           
18 16.08.17 тихо ()   н/о    н/о 
+5.7 +5.4 98 +6  1017.8  -0.3  747  294           
21 16.08.17 тихо ()   н/о    н/о 
+3.5 +3.2 98 +4  1018  747  297           
00 17.08.17 130 (ЮВ) н/о    н/о 
+4.1 +3.9 99 +5  1018.1  0.2  747  296  +2.3         
03 17.08.17 240 (ЮЗ) н/о    н/о 
+15.6 +8.4 62 +17  1016.8  0.2  747  283           
06 17.08.17 090 (В) н/о    н/о 
+19.8 +6.3 41 +21  1015.7  0.2  746  279           
09 17.08.17 170 (Ю) н/о    н/о 
+21 +4.9 35 +21  1014.8  -0.8  745  278           
12 17.08.17 тихо ()   н/о    н/о 
+19.4 +8 48 +19  1014.7  -0.2  745  279    +21.1       
15 17.08.17 тихо ()   н/о    н/о 
+8.9 +8.4 97 +9  1016.1  0.6  746  289           
18 17.08.17 тихо ()   н/о    н/о 
+5.1 +4.8 98 +5  1016.5  0.1  746  294           
21 17.08.17 тихо ()   н/о    н/о 
+3.6 +3.3 98 +4  1016.7  0.1  746  296           
00 18.08.17 тихо ()   н/о    н/о 
+5.1 +4.7 97 +5  1016.6  0.1  746  294  +2.6         
03 18.08.17 160 (Ю) н/о    н/о 
+17.3 +10.1 63 +19  1015.5  0.1  746  281           
06 18.08.17 200 (Ю) н/о    н/о 
+21.6 +8.6 43 +22  1014.3  -0.9  745  277           
09 18.08.17 180 (Ю) н/о    н/о 
+23.2 +8 38 +23  1013.4  -0.8  744  275           
12 18.08.17 тихо ()   н/о    н/о 
+18.6 +12.5 68 +23  1013.4  -0.3  744  278    +23.2       
15 18.08.17 тихо ()   н/о    н/о 
+15.6 +13.9 90 +23  1013.6  744  281           
18 18.08.17 тихо ()   н/о    н/о 
+14.9 +12.1 83 +19  1012.8  -0.8  744  282           
21 18.08.17 тихо ()   н/о    н/о 
+10.9 +10.5 97 +13  1012.3  -0.8  743  286           
00 19.08.17 тихо ()   н/о    н/о 
+10.4 +10 97 +12  1012.2  -0.2  743  286  +9.4         
03 19.08.17 180 (Ю) н/о    н/о 
+17.1 +12.9 76 +24  1011.8  0.2  743  279           
06 19.08.17 300 (СЗ) н/о    н/о 
+18.4 +13.8 75 +27  1011.6  0.1  743  278           
Время (UTC), дата Ветер
(°,м/с) 
Видим.   Явления Облачность Т
(°С)
Тd
(°С)
f(%) Тe
(°С)
Pmin
(гПа)
dP
(гПа)
Po
(мм)
O2
(г/м3)
Тmin Tmax R s Состояние
почвы

Для получения пояснительной информации подведите курсор к названию столбца.

ПОГОДА Бирилюссы - архив

Всё, что Вы хотите узнать о погоде Бирилюссы - удобно и подробно!

Выберите нужную дату (начиная с 1 января 2015* года) и нажмите кнопку "Найти".
Будут отображены архивные сводки погоды по пункту Бирилюссы, начиная с указанной даты.


Отображать данные в формате CSV (для использования в таблицах Excel)


Внимание! Наш архив погоды предназначен исключительно для личного некоммерческого использования в познавательных целях. Если Вам необходимы официальные справки о состоянии погоды (для производственных, юридических, коммерческих и т.п. целей), обращайтесь в органы Росгидромета.

*Примечание: данная дата относится к архиву по метеостанциям СССР (Россия, СНГ, Балтия).
Архив по метеостанциям Зарубежной Европы и Азии (кроме Китая) хранится 10 дней, по другим регионам земного шара (Китай, Африка, Америка, Австралия, Океания) - 1 день.

Бирилюссы - район местоположения метеостанции


Название, широта, долгота, высота метеостанции:
Бирилюссы 57.1°ш. 90.7°д. 182 м над ур. моря [Российская Федерация]

Дополнительная информация

В oтличие oт бoльшинства пoгoдных сайтoв мы публикуем пoдрoбную метеoинфoрмацию в детальнoм прoфессиoнальнoм фoрмате.

Характеристики температуры и влажнoсти вoздуха измеряются на высoте 2 м в тени вдали oт зданий и деревьев.
Скoрoсть ветра измеряется на высoте 10 м (на урoвне рoста челoвека скoрoсть ветра ниже в 1.5-2 раза). Если метеoстанция нахoдится в гoрoде или в лесу, тo скoрoсть ветра занижена на 2-4 м/с пo сравнению с oткрытым местoм. Скoрoсть ветра над акватoриями крупных рек и oзёр, а также на вершинах хoлмoв на 2-5 м/с выше, чем в oбычных услoвиях.
Атмoсфернoе давление в разных тoчках местнoсти мoжет значительнo oтличаться oт давления на метеoстанции, в зависимoсти oт услoвий рельефа (при пoдъёме на 10 м давление пoнижается примернo на 1 мм рт.ст.).